| time (UTC) | temp C | wind direction | speed KPH | gust KPH | rain 1hr cm | rain 24hr cm | rain mn cm | humidity % | barometer mb |
| 20260506000350 | 1 | 79 | 0.0 | 0.0 | 0.00 | 0.00 | 0.00 | 82 | 1457.6 |
| 20260506000150 | 1 | 39 | 0.0 | 0.0 | 0.00 | 0.00 | 0.00 | 82 | 1457.6 |
| 20260505235950 | 1 | 116 | 0.0 | 1.6 | 0.00 | 0.00 | 0.00 | 82 | 1457.7 |
| 20260505235750 | 1 | 90 | 0.0 | 1.6 | 0.00 | 0.00 | 0.00 | 82 | 1451.2 |
| 20260505235550 | 2 | 94 | 0.0 | 1.6 | 0.00 | 0.00 | 0.00 | 82 | 1448.1 |
| 20260505235350 | 2 | 86 | 0.0 | 1.6 | 0.00 | 0.00 | 0.00 | 82 | 1444.9 |
| 20260505235150 | 2 | 135 | 0.0 | 1.6 | 0.00 | 0.00 | 0.00 | 82 | 1445.0 |
| 20260505234950 | 2 | 130 | 0.0 | 1.6 | 0.00 | 0.00 | 0.00 | 82 | 1441.7 |
| 20260505234750 | 2 | 104 | 0.0 | 1.6 | 0.00 | 0.00 | 0.00 | 82 | 1441.8 |
| 20260505234550 | 2 | 95 | 0.0 | 1.6 | 0.00 | 0.00 | 0.00 | 82 | 1441.7 |
| 20260505234350 | 2 | 95 | 0.0 | 1.6 | 0.00 | 0.00 | 0.00 | 81 | 1445.0 |
| 20260505234150 | 2 | 114 | 0.0 | 1.6 | 0.00 | 0.00 | 0.00 | 81 | 1448.3 |
| 20260505233950 | 2 | 97 | 0.0 | 1.6 | 0.00 | 0.00 | 0.00 | 81 | 1448.2 |
| 20260505233750 | 2 | 105 | 0.0 | 1.6 | 0.00 | 0.00 | 0.00 | 81 | 1444.8 |
| 20260505233550 | 2 | 95 | 0.0 | 1.6 | 0.00 | 0.00 | 0.00 | 81 | 1444.9 |
| 20260505233350 | 2 | 108 | 0.0 | 1.6 | 0.00 | 0.00 | 0.00 | 81 | 1445.0 |
| 20260505233150 | 2 | 99 | 0.0 | 1.6 | 0.00 | 0.00 | 0.00 | 81 | 1445.0 |
| 20260505232950 | 2 | 111 | 0.0 | 1.6 | 0.00 | 0.00 | 0.00 | 81 | 1441.7 |
| 20260505232750 | 2 | 101 | 0.0 | 1.6 | 0.00 | 0.00 | 0.00 | 81 | 1438.6 |
| 20260505232550 | 2 | 145 | 0.0 | 1.6 | 0.00 | 0.00 | 0.00 | 81 | 1432.1 |
| 20260505232350 | 2 | 133 | 0.0 | 1.6 | 0.00 | 0.00 | 0.00 | 81 | 1428.8 |
| 20260505232150 | 2 | 111 | 0.0 | 1.6 | 0.00 | 0.00 | 0.00 | 81 | 1428.9 |
| 20260505231950 | 2 | 96 | 0.0 | 1.6 | 0.00 | 0.00 | 0.00 | 81 | 1428.9 |
| 20260505231750 | 2 | 99 | 0.0 | 1.6 | 0.00 | 0.00 | 0.00 | 81 | 1428.9 |
| 20260505231550 | 2 | 107 | 0.0 | 1.6 | 0.00 | 0.00 | 0.00 | 80 | 1428.9 |
| 20260505231350 | 2 | 102 | 0.0 | 1.6 | 0.00 | 0.00 | 0.00 | 80 | 1429.0 |
| 20260505231150 | 2 | 96 | 0.0 | 3.2 | 0.00 | 0.00 | 0.00 | 80 | 1429.0 |
| 20260505230950 | 2 | 95 | 0.0 | 3.2 | 0.00 | 0.00 | 0.00 | 80 | 1429.1 |
| 20260505230750 | 2 | 94 | 0.0 | 3.2 | 0.00 | 0.00 | 0.00 | 80 | 1425.8 |
| 20260505230550 | 2 | 94 | 1.6 | 3.2 | 0.00 | 0.00 | 0.00 | 80 | 1426.0 |
| 20260505230350 | 2 | 102 | 0.0 | 3.2 | 0.00 | 0.00 | 0.00 | 80 | 1422.7 |
| 20260505230150 | 2 | 96 | 0.0 | 3.2 | 0.00 | 0.00 | 0.00 | 80 | 1422.8 |
| 20260505225950 | 2 | 100 | 0.0 | 3.2 | 0.00 | 0.00 | 0.00 | 80 | 1422.9 |
| 20260505225750 | 2 | 91 | 1.6 | 3.2 | 0.00 | 0.00 | 0.00 | 80 | 1422.8 |
| 20260505225550 | 2 | 94 | 1.6 | 1.6 | 0.00 | 0.00 | 0.00 | 79 | 1422.6 |
| 20260505225350 | 2 | 94 | 1.6 | 1.6 | 0.00 | 0.00 | 0.00 | 79 | 1426.0 |
| 20260505225150 | 2 | 99 | 0.0 | 3.2 | 0.00 | 0.00 | 0.00 | 79 | 1425.9 |
| 20260505224950 | 2 | 99 | 0.0 | 3.2 | 0.00 | 0.00 | 0.00 | 79 | 1425.9 |
| 20260505224750 | 2 | 96 | 0.0 | 3.2 | 0.00 | 0.00 | 0.00 | 79 | 1426.0 |
| 20260505224550 | 2 | 101 | 1.6 | 3.2 | 0.00 | 0.00 | 0.00 | 79 | 1422.7 |
| 20260505224350 | 2 | 110 | 1.6 | 3.2 | 0.00 | 0.00 | 0.00 | 78 | 1422.9 |
| 20260505224150 | 2 | 111 | 0.0 | 3.2 | 0.00 | 0.00 | 0.00 | 78 | 1419.7 |
| 20260505223950 | 2 | 88 | 0.0 | 3.2 | 0.00 | 0.00 | 0.00 | 78 | 1419.8 |
| 20260505223750 | 2 | 103 | 0.0 | 3.2 | 0.00 | 0.00 | 0.00 | 78 | 1419.9 |
| 20260505223550 | 2 | 94 | 1.6 | 3.2 | 0.00 | 0.00 | 0.00 | 78 | 1419.8 |
| 20260505223350 | 2 | 97 | 1.6 | 3.2 | 0.00 | 0.00 | 0.00 | 78 | 1419.7 |
| 20260505223150 | 2 | 96 | 0.0 | 3.2 | 0.00 | 0.00 | 0.00 | 78 | 1419.6 |
| 20260505222950 | 2 | 98 | 0.0 | 3.2 | 0.00 | 0.00 | 0.00 | 77 | 1419.6 |
| 20260505222750 | 2 | 96 | 1.6 | 3.2 | 0.00 | 0.00 | 0.00 | 77 | 1419.8 |
| 20260505222550 | 2 | 100 | 1.6 | 3.2 | 0.00 | 0.00 | 0.00 | 77 | 1419.8 |
| 20260505222350 | 2 | 100 | 1.6 | 3.2 | 0.00 | 0.00 | 0.00 | 77 | 1416.4 |
| 20260505222150 | 3 | 102 | 0.0 | 1.6 | 0.00 | 0.00 | 0.00 | 77 | 1416.5 |
| 20260505221950 | 3 | 94 | 1.6 | 1.6 | 0.00 | 0.00 | 0.00 | 76 | 1416.6 |
| 20260505221750 | 3 | 90 | 1.6 | 1.6 | 0.00 | 0.00 | 0.00 | 76 | 1416.5 |
| 20260505221550 | 3 | 100 | 0.0 | 1.6 | 0.00 | 0.00 | 0.00 | 76 | 1416.6 |
| 20260505221350 | 3 | 94 | 0.0 | 1.6 | 0.00 | 0.00 | 0.00 | 76 | 1416.8 |
| 20260505221150 | 3 | 94 | 1.6 | 3.2 | 0.00 | 0.00 | 0.00 | 76 | 1413.7 |
| 20260505220950 | 3 | 106 | 0.0 | 4.8 | 0.00 | 0.00 | 0.00 | 76 | 1414.0 |
| 20260505220750 | 3 | 107 | 0.0 | 4.8 | 0.00 | 0.00 | 0.00 | 76 | 1414.2 |
| 20260505220550 | 3 | 101 | 0.0 | 4.8 | 0.00 | 0.00 | 0.00 | 76 | 1411.0 |
| 20260505220350 | 3 | 87 | 1.6 | 4.8 | 0.00 | 0.00 | 0.00 | 76 | 1414.3 |
| 20260505220150 | 3 | 90 | 1.6 | 4.8 | 0.00 | 0.00 | 0.00 | 76 | 1413.9 |
| 20260505215950 | 3 | 93 | 1.6 | 3.2 | 0.00 | 0.00 | 0.00 | 75 | 1413.8 |
| 20260505215750 | 3 | 97 | 0.0 | 1.6 | 0.00 | 0.00 | 0.00 | 75 | 1413.9 |
| 20260505215550 | 3 | 100 | 0.0 | 1.6 | 0.00 | 0.00 | 0.00 | 75 | 1414.0 |
| 20260505215350 | 3 | 103 | 0.0 | 1.6 | 0.00 | 0.00 | 0.00 | 75 | 1413.9 |
| 20260505215150 | 3 | 91 | 1.6 | 1.6 | 0.00 | 0.00 | 0.00 | 75 | 1414.0 |
| 20260505214950 | 3 | 91 | 1.6 | 1.6 | 0.00 | 0.00 | 0.00 | 75 | 1413.9 |
| 20260505214750 | 3 | 91 | 0.0 | 1.6 | 0.00 | 0.00 | 0.00 | 75 | 1413.8 |
| 20260505214550 | 3 | 97 | 0.0 | 1.6 | 0.00 | 0.00 | 0.00 | 74 | 1414.0 |
| 20260505214350 | 3 | 97 | 0.0 | 1.6 | 0.00 | 0.00 | 0.00 | 74 | 1414.3 |
| 20260505214150 | 3 | 92 | 0.0 | 1.6 | 0.00 | 0.00 | 0.00 | 74 | 1411.1 |
| 20260505213950 | 3 | 103 | 0.0 | 1.6 | 0.00 | 0.00 | 0.00 | 74 | 1411.4 |
| 20260505213750 | 3 | 93 | 0.0 | 1.6 | 0.00 | 0.00 | 0.00 | 74 | 1411.6 |
| 20260505213550 | 3 | 90 | 1.6 | 1.6 | 0.00 | 0.00 | 0.00 | 74 | 1411.7 |
| 20260505213350 | 3 | 85 | 0.0 | 3.2 | 0.00 | 0.00 | 0.00 | 74 | 1411.7 |
| 20260505213150 | 3 | 91 | 1.6 | 3.2 | 0.00 | 0.00 | 0.00 | 74 | 1411.6 |
| 20260505212950 | 3 | 90 | 1.6 | 3.2 | 0.00 | 0.00 | 0.00 | 74 | 1411.6 |
| 20260505212750 | 3 | 86 | 1.6 | 3.2 | 0.00 | 0.00 | 0.00 | 74 | 1411.6 |
| 20260505212550 | 3 | 85 | 0.0 | 3.2 | 0.00 | 0.00 | 0.00 | 74 | 1411.5 |
| 20260505212350 | 3 | 88 | 1.6 | 3.2 | 0.00 | 0.00 | 0.00 | 74 | 1411.4 |
| 20260505212150 | 3 | 92 | 1.6 | 3.2 | 0.00 | 0.00 | 0.00 | 73 | 1411.3 |
| 20260505211950 | 3 | 89 | 1.6 | 3.2 | 0.00 | 0.00 | 0.00 | 73 | 1411.3 |
| 20260505211750 | 3 | 89 | 1.6 | 3.2 | 0.00 | 0.00 | 0.00 | 73 | 1411.2 |
| 20260505211550 | 3 | 87 | 1.6 | 3.2 | 0.00 | 0.00 | 0.00 | 73 | 1411.1 |
| 20260505211350 | 3 | 92 | 1.6 | 3.2 | 0.00 | 0.00 | 0.00 | 73 | 1411.1 |
| 20260505211150 | 3 | 95 | 1.6 | 3.2 | 0.00 | 0.00 | 0.00 | 73 | 1411.4 |
| 20260505210950 | 3 | 96 | 1.6 | 3.2 | 0.00 | 0.00 | 0.00 | 72 | 1411.7 |
| 20260505210750 | 3 | 91 | 1.6 | 3.2 | 0.00 | 0.00 | 0.00 | 72 | 1412.1 |
| 20260505210550 | 3 | 86 | 0.0 | 3.2 | 0.00 | 0.00 | 0.00 | 72 | 1412.1 |
| 20260505210350 | 3 | 93 | 0.0 | 1.6 | 0.00 | 0.00 | 0.00 | 72 | 1412.2 |
| 20260505210150 | 3 | 96 | 0.0 | 1.6 | 0.00 | 0.00 | 0.00 | 72 | 1412.3 |
| 20260505205950 | 3 | 96 | 0.0 | 1.6 | 0.00 | 0.00 | 0.00 | 72 | 1412.3 |
| 20260505205750 | 4 | 99 | 0.0 | 1.6 | 0.00 | 0.00 | 0.00 | 71 | 1412.4 |
| 20260505205551 | 4 | 103 | 0.0 | 1.6 | 0.00 | 0.00 | 0.00 | 71 | 1412.5 |
| 20260505205350 | 4 | 93 | 0.0 | 1.6 | 0.00 | 0.00 | 0.00 | 71 | 1412.8 |
| 20260505205150 | 4 | 115 | 0.0 | 1.6 | 0.00 | 0.00 | 0.00 | 71 | 1413.0 |
| 20260505204950 | 4 | 176 | 0.0 | 1.6 | 0.00 | 0.00 | 0.00 | 71 | 1413.1 |
| 20260505204750 | 4 | 97 | 0.0 | 1.6 | 0.00 | 0.00 | 0.00 | 71 | 1413.1 |
| 20260505204550 | 4 | 84 | 0.0 | 1.6 | 0.00 | 0.00 | 0.00 | 71 | 1413.1 |
| 20260505204350 | 4 | 86 | 0.0 | 1.6 | 0.00 | 0.00 | 0.00 | 71 | 1413.2 |
| 20260505204150 | 4 | 112 | 0.0 | 3.2 | 0.00 | 0.00 | 0.00 | 71 | 1413.3 |
| 20260505203950 | 4 | 89 | 0.0 | 3.2 | 0.00 | 0.00 | 0.00 | 70 | 1413.1 |
| 20260505203750 | 4 | 102 | 0.0 | 3.2 | 0.00 | 0.00 | 0.00 | 70 | 1412.8 |
| 20260505203550 | 4 | 118 | 0.0 | 3.2 | 0.00 | 0.00 | 0.00 | 70 | 1412.6 |
| 20260505203350 | 4 | 82 | 0.0 | 1.6 | 0.00 | 0.00 | 0.00 | 70 | 1412.5 |
| 20260505203151 | 4 | 88 | 0.0 | 1.6 | 0.00 | 0.00 | 0.00 | 70 | 1412.5 |
| 20260505202950 | 4 | 87 | 1.6 | 1.6 | 0.00 | 0.00 | 0.00 | 69 | 1412.5 |
| 20260505202750 | 4 | 73 | 0.0 | 1.6 | 0.00 | 0.00 | 0.00 | 69 | 1412.6 |
| 20260505202550 | 4 | 88 | 0.0 | 1.6 | 0.00 | 0.00 | 0.00 | 69 | 1412.8 |
| 20260505202350 | 4 | 91 | 0.0 | 1.6 | 0.00 | 0.00 | 0.00 | 69 | 1413.0 |
| 20260505202150 | 4 | 90 | 0.0 | 1.6 | 0.00 | 0.00 | 0.00 | 68 | 1413.2 |
| 20260505201950 | 4 | 90 | 0.0 | 1.6 | 0.00 | 0.00 | 0.00 | 68 | 1413.5 |
| 20260505201750 | 5 | 94 | 0.0 | 0.0 | 0.00 | 0.00 | 0.00 | 68 | 1413.7 |
| 20260505201550 | 5 | 102 | 0.0 | 0.0 | 0.00 | 0.00 | 0.00 | 68 | 1413.9 |
| 20260505201350 | 5 | 114 | 0.0 | 0.0 | 0.00 | 0.00 | 0.00 | 67 | 1413.9 |
| 20260505201150 | 5 | 110 | 0.0 | 0.0 | 0.00 | 0.00 | 0.00 | 67 | 1413.9 |
| 20260505200750 | 5 | 94 | 0.0 | 0.0 | 0.00 | 0.00 | 0.00 | 66 | 1414.1 |
| 20260505200550 | 5 | 102 | 0.0 | 1.6 | 0.00 | 0.00 | 0.00 | 66 | 1410.8 |
| 20260505200350 | 5 | 93 | 0.0 | 1.6 | 0.00 | 0.00 | 0.00 | 65 | 1410.9 |
| 20260505200151 | 5 | 98 | 0.0 | 1.6 | 0.00 | 0.00 | 0.00 | 65 | 1411.0 |
| 20260505195950 | 5 | 93 | 0.0 | 1.6 | 0.00 | 0.00 | 0.00 | 64 | 1411.3 |
| 20260505195750 | 5 | 94 | 0.0 | 1.6 | 0.00 | 0.00 | 0.00 | 64 | 1411.7 |
| 20260505195550 | 5 | 46 | 0.0 | 1.6 | 0.00 | 0.00 | 0.00 | 63 | 1412.4 |
| 20260505195350 | 6 | 89 | 0.0 | 3.2 | 0.00 | 0.00 | 0.00 | 63 | 1413.0 |
| 20260505195150 | 6 | 92 | 0.0 | 3.2 | 0.00 | 0.00 | 0.00 | 63 | 1413.5 |
| 20260505194950 | 6 | 103 | 0.0 | 3.2 | 0.00 | 0.00 | 0.00 | 63 | 1413.8 |
| 20260505194750 | 6 | 148 | 0.0 | 3.2 | 0.00 | 0.00 | 0.00 | 63 | 1413.9 |
| 20260505194550 | 6 | 173 | 0.0 | 3.2 | 0.00 | 0.00 | 0.00 | 64 | 1413.7 |
| 20260505194350 | 6 | 151 | 0.0 | 1.6 | 0.00 | 0.00 | 0.00 | 63 | 1413.6 |
| 20260505194150 | 6 | 147 | 0.0 | 1.6 | 0.00 | 0.00 | 0.00 | 63 | 1413.7 |
| 20260505194145 | 6 | 131 | 0.0 | 0.0 | 0.00 | 0.00 | 0.00 | 63 | 1413.8 |
| 20260505193750 | 6 | 133 | 0.0 | 0.0 | 0.00 | 0.00 | 0.00 | 63 | 1414.1 |
| 20260505193550 | 6 | 138 | 0.0 | 1.6 | 0.00 | 0.00 | 0.00 | 62 | 1414.4 |
| 20260505193350 | 6 | 154 | 0.0 | 3.2 | 0.00 | 0.00 | 0.00 | 62 | 1414.6 |
| 20260505193151 | 6 | 146 | 0.0 | 3.2 | 0.00 | 0.00 | 0.00 | 61 | 1414.8 |
| 20260505192950 | 6 | 146 | 0.0 | 3.2 | 0.00 | 0.00 | 0.00 | 61 | 1415.1 |
| 20260505192750 | 6 | 152 | 0.0 | 3.2 | 0.00 | 0.00 | 0.00 | 61 | 1415.1 |
| 20260505192550 | 6 | 194 | 0.0 | 3.2 | 0.00 | 0.00 | 0.00 | 61 | 1414.9 |
| 20260505192350 | 6 | 178 | 1.6 | 3.2 | 0.00 | 0.00 | 0.00 | 61 | 1414.7 |
| 20260505192150 | 6 | 185 | 0.0 | 1.6 | 0.00 | 0.00 | 0.00 | 60 | 1414.5 |
| 20260505191950 | 6 | 161 | 0.0 | 1.6 | 0.00 | 0.00 | 0.00 | 60 | 1414.2 |
| 20260505191750 | 6 | 103 | 0.0 | 1.6 | 0.00 | 0.00 | 0.00 | 59 | 1414.1 |
| 20260505191550 | 6 | 164 | 0.0 | 0.0 | 0.00 | 0.00 | 0.00 | 59 | 1414.2 |
| 20260505191350 | 6 | 178 | 0.0 | 0.0 | 0.00 | 0.00 | 0.00 | 58 | 1414.4 |
| 20260505191150 | 6 | 41 | 0.0 | 1.6 | 0.00 | 0.00 | 0.00 | 58 | 1414.9 |
| 20260505190950 | 6 | 101 | 0.0 | 1.6 | 0.00 | 0.00 | 0.00 | 58 | 1415.4 |
| 20260505190750 | 7 | 131 | 0.0 | 1.6 | 0.00 | 0.00 | 0.00 | 58 | 1415.9 |
| 20260505190550 | 7 | 186 | 0.0 | 3.2 | 0.00 | 0.00 | 0.00 | 58 | 1416.0 |
| 20260505190350 | 7 | 201 | 0.0 | 4.8 | 0.00 | 0.00 | 0.00 | 57 | 1416.3 |
| 20260505190150 | 7 | 55 | 0.0 | 4.8 | 0.00 | 0.00 | 0.00 | 57 | 1416.6 |
| 20260505185950 | 7 | 137 | 1.6 | 4.8 | 0.00 | 0.00 | 0.00 | 57 | 1413.6 |
| 20260505185750 | 7 | 163 | 0.0 | 4.8 | 0.00 | 0.00 | 0.00 | 56 | 1413.8 |
| 20260505185550 | 7 | 191 | 1.6 | 4.8 | 0.00 | 0.00 | 0.00 | 56 | 1414.0 |
| 20260505185350 | 7 | 169 | 1.6 | 3.2 | 0.00 | 0.00 | 0.00 | 56 | 1414.0 |
| 20260505185150 | 7 | 152 | 1.6 | 3.2 | 0.00 | 0.00 | 0.00 | 55 | 1414.1 |
| 20260505184950 | 7 | 155 | 1.6 | 4.8 | 0.00 | 0.00 | 0.00 | 55 | 1414.2 |
| 20260505184750 | 7 | 137 | 0.0 | 4.8 | 0.00 | 0.00 | 0.00 | 55 | 1414.3 |
| 20260505184550 | 7 | 128 | 0.0 | 4.8 | 0.00 | 0.00 | 0.00 | 54 | 1414.6 |
| 20260505184350 | 8 | 147 | 0.0 | 4.8 | 0.00 | 0.00 | 0.00 | 54 | 1414.7 |
| 20260505184150 | 8 | 126 | 1.6 | 4.8 | 0.00 | 0.00 | 0.00 | 54 | 1414.8 |
| 20260505183950 | 8 | 146 | 1.6 | 4.8 | 0.00 | 0.00 | 0.00 | 53 | 1414.9 |
| 20260505183751 | 8 | 152 | 0.0 | 4.8 | 0.00 | 0.00 | 0.00 | 53 | 1415.1 |
| 20260505183550 | 8 | 183 | 0.0 | 6.4 | 0.00 | 0.00 | 0.00 | 52 | 1415.2 |
| 20260505183350 | 8 | 202 | 0.0 | 6.4 | 0.00 | 0.00 | 0.00 | 52 | 1415.4 |
| 20260505183150 | 8 | 168 | 1.6 | 6.4 | 0.00 | 0.00 | 0.00 | 52 | 1415.6 |
| 20260505182950 | 8 | 171 | 1.6 | 6.4 | 0.00 | 0.00 | 0.00 | 51 | 1415.8 |
| 20260505182750 | 8 | 164 | 1.6 | 6.4 | 0.00 | 0.00 | 0.00 | 51 | 1416.0 |
| 20260505182550 | 8 | 179 | 1.6 | 6.4 | 0.00 | 0.00 | 0.00 | 51 | 1416.3 |
| 20260505182350 | 8 | 158 | 1.6 | 8.0 | 0.00 | 0.00 | 0.00 | 51 | 1416.6 |
| 20260505182150 | 9 | 238 | 1.6 | 8.0 | 0.00 | 0.00 | 0.00 | 51 | 1417.2 |
| 20260505181950 | 9 | 178 | 1.6 | 8.0 | 0.00 | 0.00 | 0.00 | 49 | 1418.2 |
| 20260505181750 | 10 | 165 | 1.6 | 8.0 | 0.00 | 0.00 | 0.00 | 47 | 1419.6 |
| 20260505181550 | 11 | 209 | 1.6 | 8.0 | 0.00 | 0.00 | 0.00 | 45 | 1422.0 |
| 20260505181350 | 12 | 182 | 1.6 | 4.8 | 0.00 | 0.00 | 0.00 | 44 | 1424.6 |
| 20260505181150 | 12 | 160 | 1.6 | 6.4 | 0.00 | 0.00 | 0.00 | 43 | 1425.5 |
| 20260505180950 | 12 | 187 | 1.6 | 6.4 | 0.00 | 0.00 | 0.00 | 44 | 1425.9 |
| 20260505180750 | 12 | 155 | 1.6 | 6.4 | 0.00 | 0.00 | 0.00 | 43 | 1426.1 |
| 20260505180550 | 12 | 145 | 1.6 | 8.0 | 0.00 | 0.00 | 0.00 | 44 | 1426.0 |
| 20260505180350 | 12 | 193 | 1.6 | 8.0 | 0.00 | 0.00 | 0.00 | 44 | 1425.9 |
| 20260505180151 | 12 | 191 | 1.6 | 8.0 | 0.00 | 0.00 | 0.00 | 43 | 1425.6 |
| 20260505175950 | 12 | 205 | 1.6 | 8.0 | 0.00 | 0.00 | 0.00 | 42 | 1425.5 |
| 20260505175750 | 12 | 181 | 3.2 | 9.7 | 0.00 | 0.00 | 0.00 | 42 | 1425.6 |
| 20260505175550 | 12 | 199 | 1.6 | 11.3 | 0.00 | 0.00 | 0.00 | 42 | 1425.8 |
| 20260505175350 | 12 | 206 | 3.2 | 11.3 | 0.00 | 0.00 | 0.00 | 42 | 1425.9 |
| 20260505175150 | 13 | 201 | 3.2 | 11.3 | 0.00 | 0.00 | 0.00 | 42 | 1426.6 |
| 20260505174951 | 13 | 198 | 3.2 | 11.3 | 0.00 | 0.00 | 0.00 | 41 | 1427.5 |
| 20260505174750 | 13 | 181 | 1.6 | 6.4 | 0.00 | 0.00 | 0.00 | 41 | 1428.2 |
| 20260505174550 | 13 | 179 | 1.6 | 6.4 | 0.00 | 0.00 | 0.00 | 41 | 1428.5 |
| 20260505174351 | 13 | 186 | 1.6 | 6.4 | 0.00 | 0.00 | 0.00 | 40 | 1428.4 |
| 20260505174150 | 13 | 185 | 1.6 | 6.4 | 0.00 | 0.00 | 0.00 | 40 | 1428.4 |
| 20260505173950 | 13 | 199 | 1.6 | 9.7 | 0.00 | 0.00 | 0.00 | 40 | 1428.8 |
| 20260505173750 | 14 | 191 | 1.6 | 9.7 | 0.00 | 0.00 | 0.00 | 40 | 1429.6 |
| 20260505173550 | 14 | 207 | 1.6 | 9.7 | 0.00 | 0.00 | 0.00 | 41 | 1429.8 |
| 20260505173350 | 14 | 190 | 1.6 | 9.7 | 0.00 | 0.00 | 0.00 | 41 | 1429.7 |
| 20260505173150 | 13 | 184 | 1.6 | 9.7 | 0.00 | 0.00 | 0.00 | 41 | 1429.0 |
| 20260505172950 | 14 | 200 | 1.6 | 9.7 | 0.00 | 0.00 | 0.00 | 41 | 1429.3 |
| 20260505172750 | 14 | 201 | 1.6 | 9.7 | 0.00 | 0.00 | 0.00 | 41 | 1429.7 |
| 20260505172550 | 14 | 201 | 1.6 | 8.0 | 0.00 | 0.00 | 0.00 | 42 | 1429.9 |
| 20260505172350 | 14 | 190 | 1.6 | 11.3 | 0.00 | 0.00 | 0.00 | 42 | 1429.5 |
| 20260505172150 | 14 | 187 | 1.6 | 11.3 | 0.00 | 0.00 | 0.00 | 42 | 1429.2 |
| 20260505171950 | 13 | 166 | 1.6 | 11.3 | 0.00 | 0.00 | 0.00 | 42 | 1428.9 |
| 20260505171750 | 13 | 167 | 1.6 | 11.3 | 0.00 | 0.00 | 0.00 | 42 | 1427.9 |
| 20260505171550 | 13 | 200 | 4.8 | 11.3 | 0.00 | 0.00 | 0.00 | 41 | 1427.7 |
| 20260505171350 | 13 | 174 | 3.2 | 11.3 | 0.00 | 0.00 | 0.00 | 41 | 1428.0 |
| 20260505171151 | 13 | 189 | 3.2 | 11.3 | 0.00 | 0.00 | 0.00 | 41 | 1428.1 |
| 20260505170950 | 13 | 162 | 1.6 | 9.7 | 0.00 | 0.00 | 0.00 | 42 | 1428.5 |
| 20260505170750 | 13 | 187 | 3.2 | 9.7 | 0.00 | 0.00 | 0.00 | 41 | 1427.7 |
| 20260505170550 | 13 | 198 | 4.8 | 9.7 | 0.00 | 0.00 | 0.00 | 40 | 1428.5 |
| 20260505170350 | 14 | 171 | 3.2 | 9.7 | 0.00 | 0.00 | 0.00 | 39 | 1430.2 |
| 20260505170150 | 15 | 165 | 1.6 | 8.0 | 0.00 | 0.00 | 0.00 | 39 | 1430.6 |
| 20260505165950 | 14 | 172 | 1.6 | 9.7 | 0.00 | 0.00 | 0.00 | 39 | 1430.1 |
| 20260505165750 | 14 | 184 | 1.6 | 9.7 | 0.00 | 0.00 | 0.00 | 40 | 1430.3 |
| 20260505165550 | 14 | 184 | 1.6 | 9.7 | 0.00 | 0.00 | 0.00 | 41 | 1430.1 |
| 20260505165350 | 14 | 188 | 1.6 | 9.7 | 0.00 | 0.00 | 0.00 | 40 | 1429.8 |
| 20260505165150 | 14 | 187 | 1.6 | 9.7 | 0.00 | 0.00 | 0.00 | 40 | 1429.9 |
| 20260505164950 | 14 | 179 | 1.6 | 6.4 | 0.00 | 0.00 | 0.00 | 40 | 1430.3 |
| 20260505164750 | 15 | 196 | 1.6 | 6.4 | 0.00 | 0.00 | 0.00 | 40 | 1430.7 |
| 20260505164550 | 15 | 143 | 1.6 | 6.4 | 0.00 | 0.00 | 0.00 | 39 | 1430.9 |
| 20260505164350 | 15 | 195 | 1.6 | 6.4 | 0.00 | 0.00 | 0.00 | 40 | 1431.3 |
| 20260505164150 | 15 | 186 | 1.6 | 6.4 | 0.00 | 0.00 | 0.00 | 40 | 1431.6 |
| 20260505163950 | 15 | 175 | 1.6 | 6.4 | 0.00 | 0.00 | 0.00 | 40 | 1431.5 |
| 20260505163750 | 15 | 176 | 1.6 | 6.4 | 0.00 | 0.00 | 0.00 | 40 | 1431.3 |
| 20260505163550 | 15 | 195 | 1.6 | 9.7 | 0.00 | 0.00 | 0.00 | 40 | 1430.7 |
| 20260505163350 | 14 | 181 | 1.6 | 9.7 | 0.00 | 0.00 | 0.00 | 41 | 1430.1 |
| 20260505163150 | 14 | 225 | 1.6 | 9.7 | 0.00 | 0.00 | 0.00 | 41 | 1429.8 |
| 20260505162950 | 14 | 213 | 1.6 | 9.7 | 0.00 | 0.00 | 0.00 | 41 | 1429.4 |
| 20260505162750 | 14 | 191 | 1.6 | 9.7 | 0.00 | 0.00 | 0.00 | 41 | 1429.3 |
| 20260505162550 | 13 | 179 | 1.6 | 8.0 | 0.00 | 0.00 | 0.00 | 41 | 1428.9 |
| 20260505162350 | 14 | 214 | 3.2 | 8.0 | 0.00 | 0.00 | 0.00 | 40 | 1429.1 |
| 20260505162150 | 14 | 221 | 3.2 | 8.0 | 0.00 | 0.00 | 0.00 | 41 | 1429.4 |
| 20260505161950 | 14 | 189 | 1.6 | 8.0 | 0.00 | 0.00 | 0.00 | 41 | 1429.4 |
| 20260505161750 | 14 | 196 | 1.6 | 8.0 | 0.00 | 0.00 | 0.00 | 41 | 1429.2 |
| 20260505161550 | 14 | 184 | 3.2 | 11.3 | 0.00 | 0.00 | 0.00 | 41 | 1429.2 |
| 20260505161350 | 13 | 175 | 1.6 | 16.1 | 0.00 | 0.00 | 0.00 | 42 | 1428.8 |
| 20260505161150 | 13 | 200 | 1.6 | 16.1 | 0.00 | 0.00 | 0.00 | 43 | 1427.2 |
| 20260505160950 | 12 | 199 | 1.6 | 16.1 | 0.00 | 0.00 | 0.00 | 43 | 1424.8 |
| 20260505160750 | 11 | 181 | 3.2 | 16.1 | 0.00 | 0.00 | 0.00 | 42 | 1423.7 |
| 20260505160550 | 12 | 169 | 3.2 | 16.1 | 0.00 | 0.00 | 0.00 | 42 | 1424.2 |
| 20260505160350 | 12 | 181 | 3.2 | 11.3 | 0.00 | 0.00 | 0.00 | 42 | 1425.0 |
| 20260505160150 | 12 | 181 | 3.2 | 9.7 | 0.00 | 0.00 | 0.00 | 42 | 1426.3 |
| 20260505153350 | 13 | 194 | 3.2 | 9.7 | 0.00 | 0.00 | 0.00 | 41 | 1426.6 |
| 20260505153150 | 12 | 170 | 1.6 | 8.0 | 0.00 | 0.00 | 0.00 | 42 | 1426.0 |
| 20260505152950 | 12 | 166 | 1.6 | 8.0 | 0.00 | 0.00 | 0.00 | 41 | 1425.4 |
| 20260505152750 | 12 | 179 | 3.2 | 8.0 | 0.00 | 0.00 | 0.00 | 40 | 1425.7 |
| 20260505152550 | 13 | 177 | 3.2 | 8.0 | 0.00 | 0.00 | 0.00 | 40 | 1426.6 |
| 20260505152150 | 13 | 184 | 1.6 | 8.0 | 0.00 | 0.00 | 0.00 | 41 | 1427.8 |
| 20260505151950 | 13 | 189 | 1.6 | 8.0 | 0.00 | 0.00 | 0.00 | 40 | 1427.7 |
| 20260505151750 | 13 | 195 | 1.6 | 6.4 | 0.00 | 0.00 | 0.00 | 38 | 1427.9 |
| 20260505151550 | 13 | 200 | 3.2 | 6.4 | 0.00 | 0.00 | 0.00 | 39 | 1428.2 |
| 20260505151350 | 13 | 184 | 1.6 | 9.7 | 0.00 | 0.00 | 0.00 | 39 | 1428.3 |
| 20260505151150 | 13 | 215 | 1.6 | 9.7 | 0.00 | 0.00 | 0.00 | 40 | 1428.2 |
| 20260505151145 | 13 | 172 | 1.6 | 9.7 | 0.00 | 0.00 | 0.00 | 40 | 1428.3 |
| 20260505150750 | 13 | 198 | 1.6 | 9.7 | 0.00 | 0.00 | 0.00 | 39 | 1428.0 |
| 20260505150550 | 13 | 196 | 3.2 | 9.7 | 0.00 | 0.00 | 0.00 | 39 | 1428.1 |
| 20260505150350 | 13 | 204 | 1.6 | 8.0 | 0.00 | 0.00 | 0.00 | 39 | 1427.9 |
| 20260505150150 | 13 | 163 | 1.6 | 8.0 | 0.00 | 0.00 | 0.00 | 39 | 1427.9 |
| 20260505140550 | 14 | 204 | 1.6 | 9.7 | 0.00 | 0.00 | 0.00 | 37 | 1429.9 |
| 20260505140350 | 15 | 178 | 3.2 | 9.7 | 0.00 | 0.00 | 0.00 | 36 | 1430.5 |
| 20260505140150 | 15 | 201 | 3.2 | 9.7 | 0.00 | 0.00 | 0.00 | 35 | 1432.5 |
| 20260505130150 | 15 | 176 | 1.6 | 8.0 | 0.00 | 0.00 | 0.00 | 39 | 1431.0 |
| 20260505124950 | 13 | 197 | 3.2 | 12.9 | 0.00 | 0.00 | 0.00 | 42 | 1427.0 |
| 20260505124750 | 13 | 178 | 3.2 | 11.3 | 0.00 | 0.00 | 0.00 | 43 | 1427.4 |
| 20260505124550 | 13 | 174 | 1.6 | 11.3 | 0.00 | 0.00 | 0.00 | 44 | 1427.2 |
| 20260505124350 | 13 | 217 | 1.6 | 11.3 | 0.00 | 0.00 | 0.00 | 44 | 1426.9 |
| 20260505124150 | 13 | 161 | 1.6 | 9.7 | 0.00 | 0.00 | 0.00 | 43 | 1426.7 |
| 20260505123950 | 13 | 192 | 3.2 | 9.7 | 0.00 | 0.00 | 0.00 | 42 | 1426.6 |
| 20260505123750 | 13 | 196 | 1.6 | 9.7 | 0.00 | 0.00 | 0.00 | 43 | 1426.7 |
| 20260505123550 | 12 | 188 | 1.6 | 8.0 | 0.00 | 0.00 | 0.00 | 43 | 1426.4 |
| 20260505123350 | 12 | 195 | 3.2 | 8.0 | 0.00 | 0.00 | 0.00 | 44 | 1426.2 |
| 20260505123150 | 12 | 173 | 3.2 | 8.0 | 0.00 | 0.00 | 0.00 | 43 | 1426.2 |
| 20260505122950 | 12 | 167 | 3.2 | 8.0 | 0.00 | 0.00 | 0.00 | 44 | 1426.0 |
| 20260505122750 | 12 | 183 | 1.6 | 9.7 | 0.00 | 0.00 | 0.00 | 45 | 1425.8 |
| 20260505122550 | 12 | 180 | 1.6 | 9.7 | 0.00 | 0.00 | 0.00 | 45 | 1425.0 |
| 20260505122350 | 12 | 193 | 3.2 | 9.7 | 0.00 | 0.00 | 0.00 | 45 | 1424.4 |
| 20260505122150 | 12 | 156 | 3.2 | 9.7 | 0.00 | 0.00 | 0.00 | 45 | 1424.8 |
| 20260505121950 | 12 | 167 | 3.2 | 9.7 | 0.00 | 0.00 | 0.00 | 46 | 1425.3 |
| 20260505121750 | 12 | 178 | 1.6 | 9.7 | 0.00 | 0.00 | 0.00 | 47 | 1425.0 |
| 20260505121550 | 12 | 200 | 3.2 | 9.7 | 0.00 | 0.00 | 0.00 | 47 | 1424.5 |
| 20260505121350 | 12 | 181 | 3.2 | 11.3 | 0.00 | 0.00 | 0.00 | 48 | 1424.4 |
| 20260505121150 | 12 | 214 | 3.2 | 11.3 | 0.00 | 0.00 | 0.00 | 47 | 1424.0 |
| 20260505120950 | 11 | 199 | 3.2 | 11.3 | 0.00 | 0.00 | 0.00 | 47 | 1423.7 |
| 20260505120750 | 11 | 195 | 1.6 | 11.3 | 0.00 | 0.00 | 0.00 | 47 | 1423.4 |
| 20260505120550 | 11 | 228 | 4.8 | 11.3 | 0.00 | 0.00 | 0.00 | 47 | 1422.9 |
| 20260505120350 | 11 | 208 | 3.2 | 11.3 | 0.00 | 0.00 | 0.00 | 47 | 1423.1 |
| 20260505120150 | 11 | 190 | 1.6 | 11.3 | 0.00 | 0.00 | 0.00 | 47 | 1423.0 |
| 20260505115950 | 11 | 230 | 3.2 | 11.3 | 0.00 | 0.00 | 0.00 | 47 | 1423.0 |
| 20260505115750 | 11 | 220 | 3.2 | 11.3 | 0.00 | 0.00 | 0.00 | 48 | 1423.0 |
| 20260505115550 | 11 | 217 | 3.2 | 11.3 | 0.00 | 0.00 | 0.00 | 48 | 1422.7 |
| 20260505115350 | 11 | 199 | 3.2 | 11.3 | 0.00 | 0.00 | 0.00 | 49 | 1422.4 |
| 20260505115150 | 11 | 174 | 1.6 | 9.7 | 0.00 | 0.00 | 0.00 | 49 | 1422.5 |
| 20260505114950 | 11 | 197 | 1.6 | 9.7 | 0.00 | 0.00 | 0.00 | 50 | 1422.1 |
| 20260505114750 | 11 | 192 | 3.2 | 8.0 | 0.00 | 0.00 | 0.00 | 49 | 1422.1 |
| 20260505114550 | 11 | 190 | 3.2 | 8.0 | 0.00 | 0.00 | 0.00 | 50 | 1422.2 |
| 20260505114351 | 11 | 173 | 1.6 | 8.0 | 0.00 | 0.00 | 0.00 | 49 | 1421.7 |
| 20260505114150 | 11 | 199 | 3.2 | 8.0 | 0.00 | 0.00 | 0.00 | 49 | 1421.6 |
| 20260505113950 | 11 | 237 | 3.2 | 9.7 | 0.00 | 0.00 | 0.00 | 49 | 1422.1 |
| 20260505113750 | 11 | 217 | 3.2 | 11.3 | 0.00 | 0.00 | 0.00 | 50 | 1422.1 |
| 20260505113550 | 11 | 165 | 1.6 | 11.3 | 0.00 | 0.00 | 0.00 | 50 | 1422.0 |
| 20260505113350 | 11 | 214 | 3.2 | 11.3 | 0.00 | 0.00 | 0.00 | 49 | 1421.6 |
| 20260505113150 | 11 | 214 | 3.2 | 12.9 | 0.00 | 0.00 | 0.00 | 49 | 1421.8 |
| 20260505112950 | 11 | 189 | 3.2 | 12.9 | 0.00 | 0.00 | 0.00 | 49 | 1421.4 |
| 20260505112750 | 11 | 212 | 3.2 | 12.9 | 0.00 | 0.00 | 0.00 | 48 | 1421.6 |
| 20260505112550 | 11 | 213 | 3.2 | 12.9 | 0.00 | 0.00 | 0.00 | 48 | 1422.2 |
| 20260505112350 | 11 | 204 | 3.2 | 12.9 | 0.00 | 0.00 | 0.00 | 48 | 1422.6 |
| 20260505112150 | 11 | 213 | 3.2 | 11.3 | 0.00 | 0.00 | 0.00 | 48 | 1422.6 |
| 20260505111950 | 11 | 181 | 1.6 | 11.3 | 0.00 | 0.00 | 0.00 | 48 | 1422.7 |
| 20260505111750 | 11 | 214 | 3.2 | 11.3 | 0.00 | 0.00 | 0.00 | 49 | 1422.4 |
| 20260505111550 | 11 | 197 | 3.2 | 11.3 | 0.00 | 0.00 | 0.00 | 49 | 1422.0 |
| 20260505111350 | 11 | 218 | 4.8 | 11.3 | 0.00 | 0.00 | 0.00 | 48 | 1421.9 |
| 20260505111150 | 11 | 185 | 3.2 | 9.7 | 0.00 | 0.00 | 0.00 | 49 | 1422.1 |
| 20260505110950 | 11 | 227 | 3.2 | 9.7 | 0.00 | 0.00 | 0.00 | 49 | 1421.7 |
| 20260505110750 | 11 | 220 | 3.2 | 9.7 | 0.00 | 0.00 | 0.00 | 49 | 1421.4 |
| 20260505110550 | 11 | 204 | 3.2 | 9.7 | 0.00 | 0.00 | 0.00 | 48 | 1421.5 |
| 20260505110350 | 11 | 217 | 1.6 | 9.7 | 0.00 | 0.00 | 0.00 | 48 | 1421.3 |
| 20260505110150 | 11 | 197 | 3.2 | 9.7 | 0.00 | 0.00 | 0.00 | 48 | 1421.3 |
| 20260505102150 | 10 | 207 | 1.6 | 9.7 | 0.00 | 0.00 | 0.00 | 47 | 1421.0 |
| 20260505101950 | 10 | 218 | 3.2 | 11.3 | 0.00 | 0.00 | 0.00 | 47 | 1421.0 |
| 20260505101750 | 11 | 198 | 3.2 | 11.3 | 0.00 | 0.00 | 0.00 | 47 | 1421.4 |
| 20260505101550 | 11 | 200 | 3.2 | 11.3 | 0.00 | 0.00 | 0.00 | 47 | 1422.1 |
| 20260505101350 | 11 | 229 | 4.8 | 11.3 | 0.00 | 0.00 | 0.00 | 47 | 1422.6 |
| 20260505101150 | 11 | 203 | 1.6 | 8.0 | 0.00 | 0.00 | 0.00 | 47 | 1423.2 |
| 20260505100950 | 11 | 216 | 3.2 | 8.0 | 0.00 | 0.00 | 0.00 | 46 | 1423.4 |
| 20260505100750 | 12 | 223 | 1.6 | 8.0 | 0.00 | 0.00 | 0.00 | 47 | 1423.8 |
| 20260505100550 | 12 | 215 | 3.2 | 6.4 | 0.00 | 0.00 | 0.00 | 46 | 1423.9 |
| 20260505100350 | 12 | 208 | 1.6 | 9.7 | 0.00 | 0.00 | 0.00 | 46 | 1423.9 |
| 20260505100150 | 11 | 186 | 1.6 | 9.7 | 0.00 | 0.00 | 0.00 | 46 | 1423.5 |
| 20260505095950 | 11 | 190 | 1.6 | 9.7 | 0.00 | 0.00 | 0.00 | 47 | 1423.0 |
| 20260505095750 | 11 | 224 | 3.2 | 9.7 | 0.00 | 0.00 | 0.00 | 48 | 1422.3 |
| 20260505095550 | 11 | 211 | 3.2 | 9.7 | 0.00 | 0.00 | 0.00 | 46 | 1422.7 |
| 20260505095351 | 11 | 224 | 3.2 | 8.0 | 0.00 | 0.00 | 0.00 | 46 | 1423.6 |
| 20260505095150 | 11 | 226 | 1.6 | 8.0 | 0.00 | 0.00 | 0.00 | 46 | 1423.6 |
| 20260505094950 | 11 | 234 | 3.2 | 8.0 | 0.00 | 0.00 | 0.00 | 46 | 1423.6 |
| 20260505094945 | 11 | 246 | 3.2 | 8.0 | 0.00 | 0.00 | 0.00 | 46 | 1423.5 |
| 20260505094550 | 11 | 195 | 1.6 | 8.0 | 0.00 | 0.00 | 0.00 | 47 | 1423.5 |
| 20260505094351 | 11 | 226 | 3.2 | 9.7 | 0.00 | 0.00 | 0.00 | 47 | 1423.3 |
| 20260505094150 | 11 | 193 | 3.2 | 9.7 | 0.00 | 0.00 | 0.00 | 47 | 1423.4 |
| 20260505093950 | 11 | 203 | 1.6 | 12.9 | 0.00 | 0.00 | 0.00 | 48 | 1423.1 |
| 20260505093750 | 11 | 180 | 1.6 | 12.9 | 0.00 | 0.00 | 0.00 | 48 | 1421.9 |
| 20260505093550 | 11 | 230 | 3.2 | 12.9 | 0.00 | 0.00 | 0.00 | 48 | 1421.3 |
| 20260505093350 | 10 | 214 | 3.2 | 12.9 | 0.00 | 0.00 | 0.00 | 47 | 1421.1 |
| 20260505093150 | 11 | 218 | 4.8 | 12.9 | 0.00 | 0.00 | 0.00 | 47 | 1421.8 |
| 20260505092950 | 11 | 204 | 1.6 | 6.4 | 0.00 | 0.00 | 0.00 | 47 | 1422.5 |
| 20260505092750 | 11 | 141 | 1.6 | 12.9 | 0.00 | 0.00 | 0.00 | 47 | 1422.3 |
| 20260505092550 | 11 | 203 | 1.6 | 12.9 | 0.00 | 0.00 | 0.00 | 47 | 1422.1 |
| 20260505092350 | 11 | 183 | 1.6 | 12.9 | 0.00 | 0.00 | 0.00 | 47 | 1421.9 |
| 20260505092150 | 11 | 217 | 1.6 | 12.9 | 0.00 | 0.00 | 0.00 | 49 | 1421.5 |
| 20260505091952 | 11 | 217 | 3.2 | 11.3 | 0.00 | 0.00 | 0.00 | 48 | 1421.6 |
| 20260505091750 | 11 | 184 | 1.6 | 11.3 | 0.00 | 0.00 | 0.00 | 49 | 1421.8 |
| 20260505091550 | 11 | 211 | 3.2 | 11.3 | 0.00 | 0.00 | 0.00 | 49 | 1421.4 |
| 20260505091350 | 11 | 227 | 3.2 | 9.7 | 0.00 | 0.00 | 0.00 | 48 | 1421.4 |
| 20260505091150 | 11 | 202 | 1.6 | 9.7 | 0.00 | 0.00 | 0.00 | 47 | 1421.4 |
| 20260505090950 | 11 | 225 | 3.2 | 8.0 | 0.00 | 0.00 | 0.00 | 47 | 1421.4 |
| 20260505090750 | 11 | 206 | 3.2 | 8.0 | 0.00 | 0.00 | 0.00 | 48 | 1421.8 |
| 20260505090550 | 11 | 199 | 1.6 | 9.7 | 0.00 | 0.00 | 0.00 | 48 | 1421.9 |
| 20260505090350 | 11 | 197 | 3.2 | 9.7 | 0.00 | 0.00 | 0.00 | 48 | 1421.7 |
| 20260505090150 | 11 | 211 | 1.6 | 9.7 | 0.00 | 0.00 | 0.00 | 48 | 1421.4 |
| 20260505085950 | 10 | 194 | 3.2 | 9.7 | 0.00 | 0.00 | 0.00 | 48 | 1420.8 |
| 20260505085750 | 11 | 171 | 3.2 | 9.7 | 0.00 | 0.00 | 0.00 | 50 | 1421.2 |
| 20260505085550 | 10 | 183 | 1.6 | 9.7 | 0.00 | 0.00 | 0.00 | 50 | 1420.5 |
| 20260505085350 | 10 | 221 | 3.2 | 9.7 | 0.00 | 0.00 | 0.00 | 50 | 1419.9 |
| 20260505085150 | 10 | 157 | 1.6 | 11.3 | 0.00 | 0.00 | 0.00 | 50 | 1419.6 |
| 20260505084950 | 10 | 206 | 3.2 | 11.3 | 0.00 | 0.00 | 0.00 | 50 | 1419.1 |
| 20260505084750 | 10 | 207 | 3.2 | 12.9 | 0.00 | 0.00 | 0.00 | 50 | 1419.0 |
| 20260505084550 | 10 | 212 | 3.2 | 12.9 | 0.00 | 0.00 | 0.00 | 50 | 1419.0 |
| 20260505084350 | 10 | 234 | 3.2 | 12.9 | 0.00 | 0.00 | 0.00 | 51 | 1419.2 |
| 20260505084150 | 10 | 183 | 1.6 | 12.9 | 0.00 | 0.00 | 0.00 | 51 | 1419.1 |
| 20260505083950 | 10 | 191 | 3.2 | 12.9 | 0.00 | 0.00 | 0.00 | 51 | 1418.9 |
| 20260505083750 | 10 | 185 | 1.6 | 9.7 | 0.00 | 0.00 | 0.00 | 51 | 1418.6 |
| 20260505083550 | 9 | 199 | 1.6 | 9.7 | 0.00 | 0.00 | 0.00 | 51 | 1418.4 |
| 20260505083350 | 9 | 240 | 3.2 | 9.7 | 0.00 | 0.00 | 0.00 | 51 | 1418.3 |
| 20260505083150 | 9 | 237 | 4.8 | 9.7 | 0.00 | 0.00 | 0.00 | 51 | 1418.4 |
| 20260505082950 | 10 | 228 | 3.2 | 9.7 | 0.00 | 0.00 | 0.00 | 51 | 1418.6 |
| 20260505082750 | 9 | 184 | 3.2 | 9.7 | 0.00 | 0.00 | 0.00 | 51 | 1418.3 |
| 20260505082550 | 9 | 227 | 3.2 | 9.7 | 0.00 | 0.00 | 0.00 | 51 | 1418.3 |
| 20260505082350 | 9 | 191 | 1.6 | 9.7 | 0.00 | 0.00 | 0.00 | 51 | 1418.3 |
| 20260505082150 | 9 | 217 | 3.2 | 9.7 | 0.00 | 0.00 | 0.00 | 51 | 1418.2 |
| 20260505081950 | 9 | 228 | 3.2 | 9.7 | 0.00 | 0.00 | 0.00 | 49 | 1418.1 |
| 20260505081750 | 9 | 243 | 3.2 | 9.7 | 0.00 | 0.00 | 0.00 | 50 | 1418.2 |
| 20260505081550 | 9 | 225 | 3.2 | 9.7 | 0.00 | 0.00 | 0.00 | 50 | 1418.1 |
| 20260505081350 | 9 | 197 | 1.6 | 9.7 | 0.00 | 0.00 | 0.00 | 52 | 1418.2 |
| 20260505081150 | 9 | 192 | 1.6 | 9.7 | 0.00 | 0.00 | 0.00 | 52 | 1417.7 |
| 20260505080950 | 9 | 217 | 3.2 | 9.7 | 0.00 | 0.00 | 0.00 | 51 | 1417.3 |
| 20260505080750 | 9 | 195 | 1.6 | 9.7 | 0.00 | 0.00 | 0.00 | 51 | 1417.5 |
| 20260505080550 | 8 | 237 | 3.2 | 11.3 | 0.00 | 0.00 | 0.00 | 52 | 1417.1 |
| 20260505080350 | 8 | 208 | 3.2 | 11.3 | 0.00 | 0.00 | 0.00 | 52 | 1417.0 |
| 20260505080150 | 8 | 193 | 1.6 | 11.3 | 0.00 | 0.00 | 0.00 | 51 | 1416.7 |
| 20260505075950 | 8 | 223 | 4.8 | 11.3 | 0.00 | 0.00 | 0.00 | 51 | 1416.4 |
| 20260505075750 | 8 | 172 | 1.6 | 9.7 | 0.00 | 0.00 | 0.00 | 51 | 1416.3 |
| 20260505075550 | 8 | 230 | 3.2 | 9.7 | 0.00 | 0.00 | 0.00 | 50 | 1416.0 |
| 20260505075350 | 8 | 268 | 4.8 | 14.5 | 0.00 | 0.00 | 0.00 | 49 | 1415.6 |
| 20260505075150 | 8 | 225 | 3.2 | 14.5 | 0.00 | 0.00 | 0.00 | 50 | 1415.8 |
| 20260505074950 | 8 | 209 | 1.6 | 14.5 | 0.00 | 0.00 | 0.00 | 50 | 1415.3 |
| 20260505074750 | 7 | 269 | 4.8 | 14.5 | 0.00 | 0.00 | 0.00 | 49 | 1414.6 |
| 20260505074550 | 8 | 247 | 6.4 | 14.5 | 0.00 | 0.00 | 0.00 | 49 | 1414.8 |
| 20260505074350 | 8 | 266 | 6.4 | 12.9 | 0.00 | 0.00 | 0.00 | 50 | 1415.4 |
| 20260505074150 | 8 | 224 | 3.2 | 11.3 | 0.00 | 0.00 | 0.00 | 51 | 1416.2 |
| 20260505073950 | 8 | 220 | 3.2 | 11.3 | 0.00 | 0.00 | 0.00 | 51 | 1416.0 |
| 20260505073750 | 8 | 219 | 3.2 | 11.3 | 0.00 | 0.00 | 0.00 | 52 | 1415.9 |
| 20260505073550 | 8 | 204 | 3.2 | 11.3 | 0.00 | 0.00 | 0.00 | 51 | 1415.6 |
| 20260505073350 | 8 | 210 | 3.2 | 12.9 | 0.00 | 0.00 | 0.00 | 50 | 1415.4 |
| 20260505073150 | 8 | 196 | 3.2 | 16.1 | 0.00 | 0.00 | 0.00 | 51 | 1415.4 |
| 20260505072950 | 8 | 228 | 3.2 | 16.1 | 0.00 | 0.00 | 0.00 | 50 | 1415.0 |
| 20260505072750 | 7 | 217 | 3.2 | 16.1 | 0.00 | 0.00 | 0.00 | 50 | 1414.6 |
| 20260505072550 | 7 | 263 | 8.0 | 16.1 | 0.00 | 0.00 | 0.00 | 49 | 1414.4 |
| 20260505072350 | 7 | 235 | 4.8 | 16.1 | 0.00 | 0.00 | 0.00 | 50 | 1414.6 |
| 20260505072150 | 8 | 239 | 6.4 | 16.1 | 0.00 | 0.00 | 0.00 | 50 | 1414.6 |
| 20260505071950 | 8 | 236 | 6.4 | 16.1 | 0.00 | 0.00 | 0.00 | 51 | 1415.1 |
| 20260505071750 | 8 | 211 | 3.2 | 14.5 | 0.00 | 0.00 | 0.00 | 52 | 1414.8 |
| 20260505071550 | 7 | 250 | 4.8 | 14.5 | 0.00 | 0.00 | 0.00 | 51 | 1414.3 |
| 20260505071350 | 7 | 256 | 8.0 | 14.5 | 0.00 | 0.00 | 0.00 | 50 | 1414.4 |
| 20260505071150 | 8 | 233 | 3.2 | 11.3 | 0.00 | 0.00 | 0.00 | 50 | 1414.8 |
| 20260505070951 | 8 | 223 | 4.8 | 12.9 | 0.00 | 0.00 | 0.00 | 51 | 1414.6 |
| 20260505070750 | 7 | 235 | 4.8 | 12.9 | 0.00 | 0.00 | 0.00 | 50 | 1414.6 |
| 20260505070550 | 7 | 213 | 3.2 | 14.5 | 0.00 | 0.00 | 0.00 | 51 | 1414.5 |
| 20260505070350 | 7 | 269 | 6.4 | 14.5 | 0.00 | 0.00 | 0.00 | 50 | 1414.4 |
| 20260505070150 | 8 | 238 | 4.8 | 14.5 | 0.00 | 0.00 | 0.00 | 49 | 1415.0 |
| 20260505065950 | 8 | 200 | 4.8 | 14.5 | 0.00 | 0.00 | 0.00 | 51 | 1415.4 |
| 20260505065750 | 8 | 191 | 1.6 | 11.3 | 0.00 | 0.00 | 0.00 | 51 | 1415.4 |
| 20260505065550 | 8 | 178 | 3.2 | 19.3 | 0.00 | 0.00 | 0.00 | 51 | 1415.4 |
| 20260505065350 | 8 | 193 | 3.2 | 19.3 | 0.00 | 0.00 | 0.00 | 51 | 1414.9 |
| 20260505065150 | 7 | 227 | 4.8 | 19.3 | 0.00 | 0.00 | 0.00 | 51 | 1414.4 |
| 20260505064950 | 7 | 267 | 6.4 | 19.3 | 0.00 | 0.00 | 0.00 | 51 | 1413.9 |
| 20260505064750 | 7 | 255 | 11.3 | 19.3 | 0.00 | 0.00 | 0.00 | 50 | 1413.8 |
| 20260505064550 | 7 | 263 | 8.0 | 17.7 | 0.00 | 0.00 | 0.00 | 50 | 1414.1 |
| 20260505064350 | 7 | 242 | 6.4 | 17.7 | 0.00 | 0.00 | 0.00 | 51 | 1414.4 |
| 20260505064150 | 7 | 263 | 6.4 | 17.7 | 0.00 | 0.00 | 0.00 | 52 | 1414.4 |
| 20260505063950 | 7 | 187 | 3.2 | 17.7 | 0.00 | 0.00 | 0.00 | 54 | 1414.4 |
| 20260505063750 | 7 | 261 | 8.0 | 17.7 | 0.00 | 0.00 | 0.00 | 52 | 1414.0 |
| 20260505063550 | 7 | 260 | 8.0 | 16.1 | 0.00 | 0.00 | 0.00 | 50 | 1414.0 |
| 20260505063350 | 7 | 245 | 6.4 | 20.9 | 0.00 | 0.00 | 0.00 | 51 | 1414.4 |
| 20260505063150 | 7 | 243 | 4.8 | 20.9 | 0.00 | 0.00 | 0.00 | 53 | 1414.3 |
| 20260505062950 | 7 | 208 | 4.8 | 20.9 | 0.00 | 0.00 | 0.00 | 54 | 1413.8 |
| 20260505062750 | 7 | 254 | 11.3 | 20.9 | 0.00 | 0.00 | 0.00 | 52 | 1413.4 |
| 20260505062550 | 7 | 256 | 8.0 | 19.3 | 0.00 | 0.00 | 0.00 | 52 | 1413.5 |
| 20260505062350 | 7 | 257 | 9.7 | 19.3 | 0.00 | 0.00 | 0.00 | 51 | 1413.5 |
| 20260505062150 | 7 | 229 | 4.8 | 19.3 | 0.00 | 0.00 | 0.00 | 53 | 1414.0 |
| 20260505061950 | 7 | 224 | 4.8 | 19.3 | 0.00 | 0.00 | 0.00 | 53 | 1414.0 |
| 20260505061750 | 7 | 188 | 4.8 | 19.3 | 0.00 | 0.00 | 0.00 | 54 | 1414.1 |
| 20260505061550 | 7 | 149 | 3.2 | 16.1 | 0.00 | 0.00 | 0.00 | 53 | 1413.8 |
| 20260505061351 | 7 | 265 | 6.4 | 17.7 | 0.00 | 0.00 | 0.00 | 53 | 1413.6 |
| 20260505061150 | 7 | 221 | 4.8 | 17.7 | 0.00 | 0.00 | 0.00 | 54 | 1413.6 |
| 20260505060950 | 7 | 243 | 6.4 | 19.3 | 0.00 | 0.00 | 0.00 | 53 | 1413.4 |
| 20260505060750 | 7 | 270 | 8.0 | 19.3 | 0.00 | 0.00 | 0.00 | 52 | 1413.1 |
| 20260505060550 | 7 | 262 | 8.0 | 19.3 | 0.00 | 0.00 | 0.00 | 52 | 1413.0 |
| 20260505060350 | 7 | 270 | 9.7 | 19.3 | 0.00 | 0.00 | 0.00 | 53 | 1413.0 |
| 20260505060150 | 7 | 242 | 8.0 | 17.7 | 0.00 | 0.00 | 0.00 | 54 | 1413.1 |
| 20260505055950 | 7 | 216 | 8.0 | 17.7 | 0.00 | 0.00 | 0.00 | 52 | 1413.0 |
| 20260505055750 | 7 | 272 | 9.7 | 17.7 | 0.00 | 0.00 | 0.00 | 51 | 1413.2 |
| 20260505055550 | 7 | 270 | 8.0 | 16.1 | 0.00 | 0.00 | 0.00 | 54 | 1413.6 |
| 20260505055350 | 7 | 229 | 4.8 | 14.5 | 0.00 | 0.00 | 0.00 | 56 | 1413.7 |
| 20260505055345 | 7 | 234 | 6.4 | 14.5 | 0.00 | 0.00 | 0.00 | 56 | 1413.4 |
| 20260505054950 | 7 | 237 | 6.4 | 14.5 | 0.00 | 0.00 | 0.00 | 54 | 1413.1 |
| 20260505054750 | 7 | 237 | 6.4 | 14.5 | 0.00 | 0.00 | 0.00 | 54 | 1413.2 |
| 20260505054550 | 7 | 216 | 4.8 | 12.9 | 0.00 | 0.00 | 0.00 | 55 | 1413.4 |
| 20260505054350 | 7 | 191 | 4.8 | 12.9 | 0.00 | 0.00 | 0.00 | 55 | 1413.4 |
| 20260505054150 | 7 | 190 | 4.8 | 17.7 | 0.00 | 0.00 | 0.00 | 55 | 1413.4 |
| 20260505053950 | 7 | 215 | 3.2 | 17.7 | 0.00 | 0.00 | 0.00 | 55 | 1413.5 |
| 20260505053750 | 7 | 183 | 4.8 | 17.7 | 0.00 | 0.00 | 0.00 | 55 | 1413.5 |
| 20260505053550 | 7 | 212 | 4.8 | 17.7 | 0.00 | 0.00 | 0.00 | 56 | 1413.6 |
| 20260505053350 | 7 | 271 | 6.4 | 17.7 | 0.00 | 0.00 | 0.00 | 56 | 1413.6 |
| 20260505053150 | 7 | 236 | 3.2 | 17.7 | 0.00 | 0.00 | 0.00 | 53 | 1413.3 |
| 20260505052950 | 7 | 265 | 8.0 | 17.7 | 0.00 | 0.00 | 0.00 | 53 | 1413.1 |
| 20260505052750 | 7 | 246 | 8.0 | 17.7 | 0.00 | 0.00 | 0.00 | 51 | 1413.1 |
| 20260505052550 | 7 | 265 | 8.0 | 16.1 | 0.00 | 0.00 | 0.00 | 54 | 1413.1 |
| 20260505052350 | 7 | 248 | 4.8 | 20.9 | 0.00 | 0.00 | 0.00 | 53 | 1413.0 |
| 20260505052150 | 7 | 242 | 8.0 | 20.9 | 0.00 | 0.00 | 0.00 | 52 | 1412.9 |
| 20260505051950 | 7 | 270 | 8.0 | 20.9 | 0.00 | 0.00 | 0.00 | 52 | 1412.9 |
| 20260505051750 | 7 | 248 | 8.0 | 24.1 | 0.00 | 0.00 | 0.00 | 52 | 1413.0 |
| 20260505051550 | 7 | 248 | 8.0 | 24.1 | 0.00 | 0.00 | 0.00 | 52 | 1412.9 |
| 20260505051350 | 7 | 238 | 8.0 | 24.1 | 0.00 | 0.00 | 0.00 | 52 | 1412.8 |
| 20260505051150 | 7 | 259 | 11.3 | 24.1 | 0.00 | 0.00 | 0.00 | 52 | 1412.8 |
| 20260505050950 | 7 | 262 | 12.9 | 24.1 | 0.00 | 0.00 | 0.00 | 51 | 1412.7 |
| 20260505050750 | 7 | 263 | 9.7 | 20.9 | 0.00 | 0.00 | 0.00 | 52 | 1412.8 |
| 20260505050550 | 7 | 248 | 11.3 | 20.9 | 0.00 | 0.00 | 0.00 | 52 | 1412.7 |
| 20260505050350 | 7 | 260 | 11.3 | 20.9 | 0.00 | 0.00 | 0.00 | 52 | 1412.8 |
| 20260505050150 | 7 | 230 | 8.0 | 20.9 | 0.00 | 0.00 | 0.00 | 54 | 1412.9 |
| 20260505041750 | 6 | 241 | 8.0 | 19.3 | 0.00 | 0.00 | 0.00 | 56 | 1415.0 |
| 20260505041550 | 6 | 262 | 6.4 | 19.3 | 0.00 | 0.00 | 0.00 | 54 | 1414.8 |
| 20260505041350 | 6 | 269 | 6.4 | 19.3 | 0.00 | 0.00 | 0.00 | 54 | 1414.7 |
| 20260505041150 | 6 | 266 | 9.7 | 19.3 | 0.00 | 0.00 | 0.00 | 53 | 1414.7 |
| 20260505040950 | 6 | 249 | 6.4 | 17.7 | 0.00 | 0.00 | 0.00 | 55 | 1414.6 |
| 20260505040750 | 6 | 246 | 8.0 | 14.5 | 0.00 | 0.00 | 0.00 | 56 | 1414.6 |
| 20260505040550 | 6 | 270 | 6.4 | 17.7 | 0.00 | 0.00 | 0.00 | 57 | 1414.7 |
| 20260505040350 | 6 | 238 | 8.0 | 17.7 | 0.00 | 0.00 | 0.00 | 57 | 1414.7 |
| 20260505040150 | 6 | 244 | 8.0 | 19.3 | 0.00 | 0.00 | 0.00 | 56 | 1414.6 |
| 20260505035950 | 6 | 255 | 9.7 | 19.3 | 0.00 | 0.00 | 0.00 | 57 | 1414.7 |
| 20260505035750 | 6 | 232 | 9.7 | 19.3 | 0.00 | 0.00 | 0.00 | 57 | 1414.7 |
| 20260505035550 | 6 | 242 | 8.0 | 19.3 | 0.00 | 0.00 | 0.00 | 57 | 1414.7 |
| 20260505035350 | 6 | 233 | 9.7 | 19.3 | 0.00 | 0.00 | 0.00 | 57 | 1414.7 |
| 20260505035150 | 6 | 256 | 8.0 | 19.3 | 0.00 | 0.00 | 0.00 | 60 | 1414.8 |
| 20260505034950 | 6 | 270 | 8.0 | 19.3 | 0.00 | 0.00 | 0.00 | 60 | 1414.8 |
| 20260505034750 | 6 | 254 | 8.0 | 19.3 | 0.00 | 0.00 | 0.00 | 61 | 1414.9 |
| 20260505034550 | 6 | 263 | 8.0 | 14.5 | 0.00 | 0.00 | 0.00 | 63 | 1415.0 |
| 20260505034350 | 6 | 228 | 6.4 | 12.9 | 0.00 | 0.00 | 0.00 | 62 | 1414.9 |
| 20260505034150 | 6 | 267 | 6.4 | 12.9 | 0.00 | 0.00 | 0.00 | 62 | 1414.9 |
| 20260505033950 | 6 | 242 | 6.4 | 14.5 | 0.00 | 0.00 | 0.00 | 61 | 1414.8 |
| 20260505033750 | 6 | 250 | 6.4 | 14.5 | 0.00 | 0.00 | 0.00 | 60 | 1414.8 |
| 20260505033550 | 6 | 240 | 6.4 | 14.5 | 0.00 | 0.00 | 0.00 | 60 | 1414.9 |
| 20260505033350 | 6 | 249 | 8.0 | 14.5 | 0.00 | 0.00 | 0.00 | 59 | 1414.9 |
| 20260505033150 | 6 | 267 | 6.4 | 12.9 | 0.00 | 0.00 | 0.00 | 59 | 1414.8 |
| 20260505032950 | 6 | 266 | 6.4 | 12.9 | 0.00 | 0.00 | 0.00 | 58 | 1414.8 |
| 20260505032750 | 6 | 275 | 8.0 | 12.9 | 0.00 | 0.00 | 0.00 | 58 | 1414.9 |
| 20260505032550 | 6 | 221 | 6.4 | 16.1 | 0.00 | 0.00 | 0.00 | 58 | 1414.9 |
| 20260505032350 | 6 | 260 | 6.4 | 16.1 | 0.00 | 0.00 | 0.00 | 57 | 1415.0 |
| 20260505032150 | 6 | 258 | 8.0 | 16.1 | 0.00 | 0.00 | 0.00 | 58 | 1415.0 |
| 20260505031950 | 6 | 242 | 8.0 | 16.1 | 0.00 | 0.00 | 0.00 | 57 | 1415.1 |
| 20260505031750 | 6 | 260 | 8.0 | 16.1 | 0.00 | 0.00 | 0.00 | 57 | 1415.1 |
| 20260505031550 | 6 | 237 | 6.4 | 16.1 | 0.00 | 0.00 | 0.00 | 58 | 1415.2 |
| 20260505031350 | 6 | 252 | 8.0 | 17.7 | 0.00 | 0.00 | 0.00 | 59 | 1415.4 |
| 20260505031150 | 6 | 246 | 8.0 | 17.7 | 0.00 | 0.00 | 0.00 | 58 | 1415.4 |
| 20260505030950 | 6 | 242 | 8.0 | 17.7 | 0.00 | 0.00 | 0.00 | 58 | 1415.4 |
| 20260505030750 | 6 | 269 | 9.7 | 17.7 | 0.00 | 0.00 | 0.00 | 58 | 1415.4 |
| 20260505030550 | 7 | 232 | 4.8 | 16.1 | 0.00 | 0.00 | 0.00 | 60 | 1415.5 |
| 20260505030350 | 7 | 260 | 4.8 | 16.1 | 0.00 | 0.00 | 0.00 | 60 | 1415.5 |
| 20260505030150 | 7 | 251 | 6.4 | 16.1 | 0.00 | 0.00 | 0.00 | 60 | 1415.6 |
| 20260505025950 | 7 | 265 | 6.4 | 14.5 | 0.00 | 0.00 | 0.00 | 60 | 1415.6 |
| 20260505025750 | 7 | 276 | 8.0 | 16.1 | 0.00 | 0.00 | 0.00 | 60 | 1415.6 |
| 20260505025550 | 7 | 283 | 8.0 | 16.1 | 0.00 | 0.00 | 0.00 | 60 | 1415.7 |
| 20260505025350 | 7 | 273 | 6.4 | 16.1 | 0.00 | 0.00 | 0.00 | 61 | 1415.7 |
| 20260505025150 | 7 | 274 | 8.0 | 16.1 | 0.00 | 0.00 | 0.00 | 60 | 1415.7 |
| 20260505024950 | 7 | 249 | 6.4 | 14.5 | 0.00 | 0.00 | 0.00 | 60 | 1415.8 |
| 20260505024750 | 7 | 256 | 6.4 | 16.1 | 0.00 | 0.00 | 0.00 | 61 | 1415.8 |
| 20260505024550 | 7 | 266 | 6.4 | 16.1 | 0.00 | 0.00 | 0.00 | 60 | 1415.8 |
| 20260505024350 | 7 | 254 | 9.7 | 16.1 | 0.00 | 0.00 | 0.00 | 60 | 1415.7 |
| 20260505024150 | 7 | 244 | 6.4 | 16.1 | 0.00 | 0.00 | 0.00 | 61 | 1415.6 |
| 20260505023950 | 7 | 207 | 6.4 | 16.1 | 0.00 | 0.00 | 0.00 | 61 | 1415.7 |
| 20260505023750 | 7 | 224 | 6.4 | 16.1 | 0.00 | 0.00 | 0.00 | 61 | 1415.9 |
| 20260505023550 | 7 | 230 | 6.4 | 16.1 | 0.00 | 0.00 | 0.00 | 61 | 1416.1 |
| 20260505023350 | 7 | 243 | 6.4 | 16.1 | 0.00 | 0.00 | 0.00 | 63 | 1413.2 |
| 20260505023150 | 7 | 266 | 8.0 | 14.5 | 0.00 | 0.00 | 0.00 | 64 | 1413.4 |
| 20260505022950 | 7 | 227 | 4.8 | 12.9 | 0.00 | 0.00 | 0.00 | 65 | 1413.5 |
| 20260505022750 | 7 | 225 | 6.4 | 12.9 | 0.00 | 0.00 | 0.00 | 64 | 1413.5 |
| 20260505022550 | 7 | 224 | 4.8 | 11.3 | 0.00 | 0.00 | 0.00 | 65 | 1413.5 |
| 20260505022350 | 7 | 189 | 3.2 | 16.1 | 0.00 | 0.00 | 0.00 | 65 | 1413.6 |
| 20260505022150 | 7 | 176 | 3.2 | 16.1 | 0.00 | 0.00 | 0.00 | 64 | 1413.7 |
| 20260505021950 | 7 | 203 | 4.8 | 20.9 | 0.00 | 0.00 | 0.00 | 64 | 1413.8 |
| 20260505021750 | 7 | 217 | 6.4 | 20.9 | 0.00 | 0.00 | 0.00 | 64 | 1414.0 |
| 20260505021550 | 7 | 243 | 8.0 | 20.9 | 0.00 | 0.00 | 0.00 | 64 | 1414.0 |
| 20260505021350 | 7 | 239 | 6.4 | 20.9 | 0.00 | 0.00 | 0.00 | 64 | 1414.0 |
| 20260505021150 | 7 | 230 | 6.4 | 16.1 | 0.00 | 0.00 | 0.00 | 65 | 1414.1 |
| 20260505020950 | 7 | 228 | 6.4 | 16.1 | 0.00 | 0.00 | 0.00 | 65 | 1414.0 |
| 20260505020750 | 7 | 221 | 6.4 | 16.1 | 0.00 | 0.00 | 0.00 | 65 | 1414.0 |
| 20260505020550 | 7 | 214 | 4.8 | 12.9 | 0.00 | 0.00 | 0.00 | 65 | 1414.0 |
| 20260505020350 | 7 | 173 | 3.2 | 17.7 | 0.00 | 0.00 | 0.00 | 65 | 1414.0 |
| 20260505020150 | 7 | 205 | 3.2 | 17.7 | 0.00 | 0.00 | 0.00 | 65 | 1414.2 |
| 20260505015950 | 7 | 215 | 4.8 | 17.7 | 0.00 | 0.00 | 0.00 | 65 | 1414.3 |
| 20260505015750 | 7 | 202 | 6.4 | 17.7 | 0.00 | 0.00 | 0.00 | 64 | 1414.3 |
| 20260505015550 | 7 | 186 | 4.8 | 17.7 | 0.00 | 0.00 | 0.00 | 64 | 1414.2 |
| 20260505015350 | 7 | 218 | 4.8 | 12.9 | 0.00 | 0.00 | 0.00 | 64 | 1414.2 |
| 20260505015150 | 7 | 154 | 3.2 | 12.9 | 0.00 | 0.00 | 0.00 | 65 | 1414.3 |
| 20260505014950 | 7 | 174 | 3.2 | 14.5 | 0.00 | 0.00 | 0.00 | 65 | 1414.5 |
| 20260505014750 | 7 | 192 | 4.8 | 14.5 | 0.00 | 0.00 | 0.00 | 64 | 1414.6 |
| 20260505014550 | 7 | 232 | 6.4 | 14.5 | 0.00 | 0.00 | 0.00 | 63 | 1414.7 |
| 20260505014350 | 7 | 245 | 6.4 | 16.1 | 0.00 | 0.00 | 0.00 | 63 | 1414.6 |
| 20260505014150 | 8 | 208 | 6.4 | 16.1 | 0.00 | 0.00 | 0.00 | 66 | 1414.6 |
| 20260505013950 | 8 | 215 | 3.2 | 16.1 | 0.00 | 0.00 | 0.00 | 65 | 1414.7 |
| 20260505013750 | 8 | 221 | 6.4 | 16.1 | 0.00 | 0.00 | 0.00 | 64 | 1414.8 |
| 20260505013550 | 8 | 236 | 6.4 | 17.7 | 0.00 | 0.00 | 0.00 | 65 | 1414.8 |
| 20260505013350 | 8 | 209 | 6.4 | 17.7 | 0.00 | 0.00 | 0.00 | 66 | 1414.9 |
| 20260505013150 | 8 | 202 | 6.4 | 17.7 | 0.00 | 0.00 | 0.00 | 67 | 1415.1 |
| 20260505012950 | 8 | 209 | 6.4 | 17.7 | 0.00 | 0.00 | 0.00 | 69 | 1415.3 |
| 20260505012750 | 8 | 200 | 8.0 | 24.1 | 0.00 | 0.00 | 0.00 | 69 | 1415.4 |
| 20260505012550 | 8 | 163 | 4.8 | 24.1 | 0.00 | 0.00 | 0.00 | 69 | 1415.4 |
| 20260505012350 | 8 | 204 | 8.0 | 24.1 | 0.00 | 0.00 | 0.00 | 69 | 1415.5 |
| 20260505012150 | 8 | 211 | 6.4 | 24.1 | 0.00 | 0.00 | 0.00 | 70 | 1415.5 |
| 20260505011950 | 8 | 210 | 8.0 | 24.1 | 0.00 | 0.00 | 0.00 | 70 | 1415.5 |
| 20260505011750 | 8 | 208 | 6.4 | 19.3 | 0.00 | 0.00 | 0.00 | 70 | 1415.5 |
| 20260505011550 | 8 | 232 | 6.4 | 19.3 | 0.00 | 0.00 | 0.00 | 70 | 1415.5 |
| 20260505011350 | 8 | 190 | 4.8 | 19.3 | 0.00 | 0.00 | 0.00 | 69 | 1415.4 |
| 20260505011150 | 8 | 221 | 8.0 | 19.3 | 0.00 | 0.00 | 0.00 | 70 | 1415.5 |
| 20260505010950 | 8 | 199 | 6.4 | 19.3 | 0.00 | 0.00 | 0.00 | 70 | 1415.6 |
| 20260505010750 | 8 | 201 | 6.4 | 20.9 | 0.00 | 0.00 | 0.00 | 71 | 1415.8 |
| 20260505010350 | 8 | 225 | 6.4 | 20.9 | 0.00 | 0.00 | 0.00 | 73 | 1416.2 |
| 20260505010150 | 8 | 182 | 6.4 | 20.9 | 0.00 | 0.00 | 0.00 | 73 | 1416.2 |
| 20260505005950 | 8 | 215 | 6.4 | 20.9 | 0.00 | 0.00 | 0.00 | 73 | 1416.2 |
| 20260505005750 | 8 | 203 | 8.0 | 19.3 | 0.00 | 0.00 | 0.00 | 74 | 1415.9 |
| 20260505005550 | 8 | 205 | 4.8 | 16.1 | 0.00 | 0.00 | 0.00 | 74 | 1415.9 |
| 20260505005350 | 8 | 206 | 6.4 | 12.9 | 0.00 | 0.00 | 0.00 | 75 | 1415.9 |
| 20260505005150 | 8 | 164 | 3.2 | 19.3 | 0.00 | 0.00 | 0.00 | 74 | 1415.8 |
| 20260505004950 | 8 | 169 | 3.2 | 19.3 | 0.00 | 0.00 | 0.00 | 74 | 1416.0 |
| 20260505004750 | 8 | 184 | 4.8 | 19.3 | 0.00 | 0.00 | 0.00 | 74 | 1416.0 |
| 20260505004550 | 8 | 181 | 4.8 | 19.3 | 0.00 | 0.00 | 0.00 | 74 | 1416.0 |
| 20260505004350 | 8 | 211 | 4.8 | 19.3 | 0.00 | 0.00 | 0.00 | 74 | 1416.0 |
| 20260505004150 | 8 | 201 | 4.8 | 22.5 | 0.00 | 0.00 | 0.00 | 74 | 1416.0 |
| 20260505003950 | 8 | 181 | 4.8 | 22.5 | 0.00 | 0.00 | 0.00 | 74 | 1416.0 |
| 20260505003750 | 8 | 186 | 4.8 | 22.5 | 0.00 | 0.00 | 0.00 | 75 | 1416.1 |
| 20260505003550 | 8 | 211 | 6.4 | 22.5 | 0.00 | 0.00 | 0.00 | 75 | 1416.3 |
| 20260505003350 | 8 | 207 | 4.8 | 19.3 | 0.00 | 0.00 | 0.00 | 76 | 1416.4 |
| 20260505003150 | 8 | 200 | 6.4 | 19.3 | 0.00 | 0.00 | 0.00 | 76 | 1416.5 |
| 20260505002950 | 8 | 222 | 8.0 | 19.3 | 0.00 | 0.00 | 0.00 | 76 | 1416.3 |
| 20260505002750 | 8 | 213 | 3.2 | 11.3 | 0.00 | 0.00 | 0.00 | 76 | 1416.2 |
| 20260505002550 | 8 | 188 | 3.2 | 14.5 | 0.00 | 0.00 | 0.00 | 76 | 1416.2 |
| 20260505002350 | 8 | 180 | 3.2 | 14.5 | 0.00 | 0.00 | 0.00 | 76 | 1416.2 |
| 20260505002150 | 8 | 181 | 3.2 | 16.1 | 0.00 | 0.00 | 0.00 | 76 | 1416.2 |
| 20260505001950 | 8 | 211 | 4.8 | 16.1 | 0.00 | 0.00 | 0.00 | 77 | 1416.2 |
| 20260505001750 | 8 | 202 | 4.8 | 16.1 | 0.00 | 0.00 | 0.00 | 78 | 1416.3 |
| 20260505001550 | 8 | 172 | 4.8 | 16.1 | 0.00 | 0.00 | 0.00 | 79 | 1416.2 |
| 20260505001350 | 8 | 199 | 4.8 | 16.1 | 0.00 | 0.00 | 0.00 | 80 | 1416.0 |
| 20260505001150 | 8 | 184 | 3.2 | 14.5 | 0.00 | 0.00 | 0.00 | 81 | 1415.7 |
| 20260505000950 | 8 | 197 | 4.8 | 14.5 | 0.00 | 0.00 | 0.00 | 82 | 1415.7 |
| 20260505000750 | 8 | 218 | 4.8 | 14.5 | 0.00 | 0.00 | 0.00 | 83 | 1416.2 |
| 20260505000550 | 8 | 169 | 3.2 | 14.5 | 0.00 | 0.00 | 0.00 | 84 | 1416.3 |